Location: Azul
(36.7830°S, 59.8500°W)
Time: 01:20:53
(UTC-03:00)

DELFI C3 - Pass Details

Date: 23 October 2021
Orbit: 529 x 543 km, 97.4° (Epoch: 30 November)

Event Time Altitude Azimuth Distance (km) Brightness Sun altitude
Rises 21:32:42 0° 181° (S) 2,740 ? -23.9°
Reaches altitude 10° 21:35:02 10° 192° (SSW) 1,836 ? -24.3°
Maximum altitude 21:38:29 29° 252° (WSW) 1,025 ? -24.8°
Drops below altitude 10° 21:41:52 10° 312° (NW) 1,804 ? -25.3°
Enters shadow 21:42:14 - 315° (NW) 1,937 ? -25.4°
